Change the Weather History Date:

Tuesday, July 16, 2013

  Actual Average (KSEP) Record (KSEP)
Temperature  
Mean Temperature 75 °F -  
Max Temperature 85 °F 94 °F 105 °F (1978)
Min Temperature 68 °F 69 °F 49 °F (1931)
Cooling Degree Days 10    
Growing Degree Days 25 (Base 50)    
Moisture  
Dew Point 69 °F    
Average Humidity 85    
Maximum Humidity 97    
Minimum Humidity 62    
Precipitation  
Precipitation 0.39 in - - ()
Sea Level Pressure  
Sea Level Pressure 30.12 in    
Wind  
Wind Speed 8 mph (SE)    
Max Wind Speed 16 mph    
Max Gust Speed 20 mph    
Visibility 8 miles    
Events Rain , Thunderstorm    
Averages and records for this station are not official NWS values.
T = Trace of Precipitation, MM = Missing Value Source: NWS Daily Summary

Daily Weather History Graph

Daily Weather History Graph

Search for Another Location

Airport or City:

Trip Planner

Search our weather history database for the weather conditions in past years. The results will help you decide how hot, cold, wet, or windy it might be!

Date:

Astronomy

Jul. 16, 2013 Rise Set
Actual Time 6:39 AM CDT 8:40 PM CDT
Civil Twilight 6:12 AM CDT 9:08 PM CDT
Nautical Twilight 5:38 AM CDT 9:41 PM CDT
Astronomical Twilight 5:03 AM CDT 10:17 PM CDT
Moon 2:32 PM CDT (7/16) 1:00 AM CDT (7/16)
Length of Visible Light 14h 55m
Length of Day
14h 00m
First Quarter, 56% of the Moon is Illuminated
Jul 16
First Quarter
Jul 22
Full
Jul 29
Last Quarter
Aug 6
New
Aug 14
First Quarter

Hourly Weather History & Observations

Time (CDT) Temp. Heat Index Dew Point Humidity Pressure Visibility Wind Dir Wind Speed Gust Speed Precip Events Conditions
12:15 AM 70.3 °F - 69.3 °F 96% 30.08 in 5.0 mi SE 9.2 mph 17.3 mph N/A Rain Light Rain
12:35 AM 69.8 °F - 68.2 °F 95% 30.07 in 10.0 mi SE 10.4 mph - N/A   Overcast
12:55 AM 69.3 °F - 67.3 °F 93% 30.07 in 10.0 mi SE 9.2 mph 16.1 mph N/A   Overcast
1:15 AM 69.1 °F - 67.5 °F 95% 30.07 in 10.0 mi ESE 8.1 mph - N/A Thunderstorm Overcast
1:35 AM 68.9 °F - 67.5 °F 95% 30.07 in 10.0 mi SE 8.1 mph - N/A   Overcast
1:55 AM 68.9 °F - 67.5 °F 95% 30.07 in 10.0 mi SE 8.1 mph - N/A   Overcast
2:15 AM 69.1 °F - 67.6 °F 95% 30.07 in 10.0 mi ESE 10.4 mph - N/A   Overcast
2:35 AM 69.1 °F - 67.6 °F 95% 30.07 in 10.0 mi SE 9.2 mph - N/A   Overcast
2:55 AM 69.3 °F - 68.0 °F 96% 30.07 in 10.0 mi SE 10.4 mph - N/A   Overcast
3:15 AM 69.6 °F - 68.2 °F 95% 30.07 in 10.0 mi SE 9.2 mph 18.4 mph N/A   Overcast
3:35 AM 69.8 °F - 68.4 °F 95% 30.08 in 7.0 mi SE 11.5 mph 16.1 mph N/A Thunderstorm Overcast
3:55 AM 69.8 °F - 68.4 °F 95% 30.08 in 7.0 mi SE 9.2 mph - N/A   Overcast
4:15 AM 69.8 °F - 68.4 °F 95% 30.08 in 7.0 mi ESE 10.4 mph - N/A   Overcast
4:35 AM 69.8 °F - 68.4 °F 95% 30.09 in 7.0 mi SE 5.8 mph - N/A   Overcast
4:55 AM 70.0 °F - 68.5 °F 95% 30.08 in 7.0 mi SE 8.1 mph - N/A   Overcast
5:15 AM 70.0 °F - 68.9 °F 96% 30.09 in 5.0 mi ESE 3.5 mph - N/A   Overcast
5:35 AM 70.0 °F - 68.9 °F 96% 30.09 in 5.0 mi ESE 5.8 mph - N/A   Overcast
5:55 AM 70.0 °F - 68.9 °F 96% 30.09 in 5.0 mi SE 4.6 mph - N/A   Overcast
6:15 AM 70.0 °F - 68.9 °F 96% 30.09 in 5.0 mi ESE 5.8 mph - N/A   Overcast
6:35 AM 70.0 °F - 68.9 °F 96% 30.09 in 4.0 mi SE 5.8 mph - N/A   Overcast
6:55 AM 70.2 °F - 69.1 °F 96% 30.10 in 2.5 mi ESE 8.1 mph - N/A   Overcast
7:15 AM 70.3 °F - 69.3 °F 96% 30.11 in 2.5 mi ESE 6.9 mph - N/A   Overcast
7:35 AM 70.3 °F - 69.4 °F 97% 30.12 in 2.5 mi SE 5.8 mph - N/A   Overcast
7:55 AM 70.7 °F - 69.4 °F 96% 30.12 in 3.0 mi SE 6.9 mph - N/A   Overcast
8:15 AM 70.9 °F - 69.8 °F 96% 30.13 in 3.0 mi SE 6.9 mph - N/A   Overcast
8:35 AM 71.6 °F - 70.2 °F 95% 30.13 in 3.0 mi SE 11.5 mph - N/A   Overcast
8:55 AM 71.8 °F - 70.7 °F 96% 30.14 in 3.0 mi SE 11.5 mph - N/A   Overcast
9:15 AM 72.0 °F - 70.7 °F 96% 30.14 in 5.0 mi SE 8.1 mph - N/A   Overcast
9:35 AM 72.9 °F - 71.1 °F 94% 30.15 in 7.0 mi SE 9.2 mph - N/A   Overcast
9:55 AM 73.9 °F - 70.9 °F 90% 30.15 in 10.0 mi SE 9.2 mph - N/A   Overcast
10:15 AM 75.7 °F - 71.6 °F 87% 30.15 in 10.0 mi SE 9.2 mph - N/A   Overcast
10:35 AM 76.1 °F - 70.5 °F 83% 30.15 in 10.0 mi SE 9.2 mph - N/A   Overcast
10:55 AM 78.1 °F - 70.5 °F 77% 30.15 in 10.0 mi ESE 12.7 mph - N/A   Overcast
11:15 AM 79.5 °F - 70.5 °F 74% 30.16 in 10.0 mi SE 11.5 mph - N/A   Overcast
11:35 AM 81.0 °F 84.7 °F 70.7 °F 71% 30.16 in 10.0 mi SE 9.2 mph - N/A   Mostly Cloudy
11:55 AM 79.3 °F - 70.0 °F 73% 30.16 in 10.0 mi ESE 11.5 mph 16.1 mph N/A   Mostly Cloudy
12:15 PM 79.9 °F - 70.5 °F 73% 30.16 in 10.0 mi ESE 6.9 mph - N/A   Mostly Cloudy
12:35 PM 79.7 °F - 69.4 °F 71% 30.16 in 10.0 mi ESE 10.4 mph - N/A   Mostly Cloudy
12:55 PM 76.5 °F - 70.5 °F 82% 30.15 in 5.0 mi SSW 6.9 mph - 0.04 in Rain Heavy Rain
1:15 PM 74.3 °F - 71.4 °F 91% 30.15 in 3.0 mi SSE 6.9 mph - 0.09 in Rain Light Rain
1:35 PM 76.1 °F - 72.7 °F 89% 30.15 in 7.0 mi SE 8.1 mph 11.5 mph 0.10 in Rain Rain
1:55 PM 78.1 °F - 72.3 °F 82% 30.14 in 10.0 mi ESE 8.1 mph - 0.10 in   Scattered Clouds
2:15 PM 79.0 °F - 72.1 °F 79% 30.14 in 10.0 mi ESE 6.9 mph - N/A   Clear
2:35 PM 79.9 °F - 71.8 °F 76% 30.14 in 10.0 mi SE 8.1 mph - N/A   Scattered Clouds
2:55 PM 82.8 °F 87.4 °F 71.2 °F 68% 30.14 in 10.0 mi SE 6.9 mph - N/A   Scattered Clouds
3:55 PM 78.6 °F - 69.4 °F 73% 30.12 in 10.0 mi East 11.5 mph - N/A   Scattered Clouds
4:15 PM 80.6 °F 83.1 °F 67.3 °F 64% 30.13 in 10.0 mi East 11.5 mph - N/A   Clear
4:35 PM 82.8 °F 86.0 °F 68.4 °F 62% 30.12 in 10.0 mi East 16.1 mph 19.6 mph N/A   Scattered Clouds
4:55 PM 81.5 °F 84.8 °F 69.3 °F 66% 30.12 in 10.0 mi East 10.4 mph - N/A   Scattered Clouds
5:15 PM 80.6 °F 83.4 °F 68.4 °F 66% 30.12 in 10.0 mi East 12.7 mph - N/A   Clear
5:35 PM 80.4 °F 83.4 °F 68.9 °F 68% 30.12 in 10.0 mi East 9.2 mph - N/A   Clear
5:55 PM 81.0 °F 83.6 °F 67.8 °F 64% 30.11 in 10.0 mi ESE 8.1 mph - N/A   Clear
6:15 PM 81.0 °F 83.4 °F 67.3 °F 63% 30.11 in 10.0 mi East 10.4 mph - N/A   Scattered Clouds
6:35 PM 80.2 °F 83.0 °F 68.4 °F 67% 30.11 in 10.0 mi East 10.4 mph - N/A   Scattered Clouds
6:55 PM 79.9 °F - 68.9 °F 69% 30.11 in 10.0 mi East 5.8 mph - N/A   Clear
7:15 PM 79.7 °F - 69.4 °F 71% 30.11 in 10.0 mi East 8.1 mph - N/A   Clear
7:35 PM 79.5 °F - 70.0 °F 72% 30.12 in 10.0 mi East 4.6 mph - N/A   Scattered Clouds
7:55 PM 77.0 °F - 67.8 °F 73% 30.14 in 10.0 mi SW 4.6 mph - N/A   Overcast
8:15 PM 76.1 °F - 68.2 °F 76% 30.14 in 10.0 mi SSW 3.5 mph - N/A   Mostly Cloudy
8:35 PM 75.7 °F - 68.5 °F 78% 30.15 in 10.0 mi Calm Calm - N/A   Scattered Clouds
8:55 PM 75.4 °F - 68.5 °F 79% 30.16 in 10.0 mi Calm Calm - N/A   Scattered Clouds
9:15 PM 75.6 °F - 68.5 °F 79% 30.16 in 10.0 mi Calm Calm - N/A   Scattered Clouds
9:35 PM 75.6 °F - 69.1 °F 80% 30.16 in 10.0 mi Calm Calm - N/A   Scattered Clouds
9:55 PM 75.6 °F - 70.3 °F 84% 30.16 in 10.0 mi ENE 5.8 mph - N/A   Scattered Clouds
10:15 PM 71.8 °F - 68.9 °F 91% 30.17 in 2.5 mi East 6.9 mph - 0.14 in Rain Heavy Rain
10:35 PM 72.3 °F - 70.3 °F 93% 30.19 in 10.0 mi SSE 9.2 mph - 0.23 in Rain , Thunderstorm Light Thunderstorms and Rain
10:55 PM 71.6 °F - 70.0 °F 95% 30.20 in 7.0 mi South 3.5 mph - 0.25 in Rain , Thunderstorm Light Thunderstorms and Rain
11:15 PM 71.4 °F - 69.8 °F 95% 30.19 in 10.0 mi South 4.6 mph - N/A   Light Drizzle
11:35 PM 71.2 °F - 69.8 °F 95% 30.20 in 10.0 mi ESE 3.5 mph - N/A   Mostly Cloudy
11:55 PM 71.2 °F - 69.8 °F 95% 30.21 in 10.0 mi Calm Calm - N/A   Overcast